Fallon NAS, NV

9:26 PM PDT on May 25, 2017 (GMT -0700)
Fallon Naval Air Station

Weather History for KNFL - August, 2013

Change the Weather History Date:

Saturday, August 24, 2013

  Actual Average Record
Temperature  
Mean Temperature 70 °F -  
Max Temperature 88 °F 87 °F 101 °F (1969)
Min Temperature 53 °F 48 °F 38 °F (1944)
Cooling Degree Days 5    
Growing Degree Days 20 (Base 50)    
Moisture  
Dew Point 31 °F    
Average Humidity 25    
Maximum Humidity 42    
Minimum Humidity 9    
Precipitation  
Precipitation 0.00 in - - ()
Sea Level Pressure  
Sea Level Pressure 29.84 in    
Wind  
Wind Speed 5 mph (SW)    
Max Wind Speed 15 mph    
Max Gust Speed -    
Visibility 3 miles    
Events      
Averages and records for this station are not official NWS values.
T = Trace of Precipitation, MM = Missing Value Source: NWS Daily Summary

Daily Weather History Graph

Daily Weather History Graph

Search for Another Location

Airport or City:

Trip Planner

Search our weather history database for the weather conditions in past years. The results will help you decide how hot, cold, wet, or windy it might be!

Date:

Astronomy

Aug. 24, 2013 Rise Set
Actual Time 6:16 AM PDT 7:37 PM PDT
Civil Twilight 5:48 AM PDT 8:05 PM PDT
Nautical Twilight 5:14 AM PDT 8:38 PM PDT
Astronomical Twilight 4:39 AM PDT 9:13 PM PDT
Moon 9:36 PM PDT (8/24) 10:19 AM PDT (8/24)
Length of Visible Light 14h 17m
Length of Day
13h 21m
Waning Gibbous, 83% of the Moon is Illuminated
Aug 24
Waning Gibbous
Aug 28
Last Quarter
Sep 5
New
Sep 12
First Quarter
Sep 19
Full

Hourly Weather History & Observations

Time (PDT) Temp. Dew Point Humidity Pressure Visibility Wind Dir Wind Speed Gust Speed Precip Events Conditions
12:56 AM 61.0 °F 32.0 °F 34% 29.84 in 3.0 mi SE 4.6 mph - N/A   Haze
1:56 AM 60.1 °F 32.0 °F 35% 29.84 in 3.0 mi South 3.5 mph - N/A   Haze
2:56 AM 62.1 °F 33.1 °F 34% 29.84 in 3.0 mi SSE 5.8 mph - N/A   Haze
3:56 AM 60.1 °F 33.1 °F 36% 29.84 in 3.0 mi Calm Calm - N/A   Haze
4:56 AM 55.9 °F 33.1 °F 42% 29.84 in 4.0 mi SSE 4.6 mph - N/A   Haze
5:56 AM 55.0 °F 30.9 °F 40% 29.84 in 4.0 mi SSE 6.9 mph - N/A   Haze
6:56 AM 53.6 °F 30.2 °F 41% 29.85 in 3.0 mi SSE 5.8 mph - N/A   Smoke
7:03 AM 53.6 °F 30.2 °F 41% 29.93 in 1.5 mi SE 5.8 mph - N/A   Smoke
7:56 AM 60.8 °F 32.0 °F 34% 29.86 in 1.0 mi SSE 4.6 mph - N/A   Smoke
8:56 AM 68.0 °F 35.6 °F 30% 29.87 in 1.5 mi South 3.5 mph - N/A   Smoke
9:56 AM 71.6 °F 33.8 °F 25% 29.87 in 1.5 mi Calm Calm - N/A   Smoke
10:56 AM 73.4 °F 33.8 °F 23% 29.88 in 1.0 mi Calm Calm - N/A   Smoke
11:56 AM 78.8 °F 28.4 °F 16% 29.86 in 1.5 mi North 3.5 mph - N/A   Smoke
12:56 PM 82.4 °F 30.2 °F 15% 29.84 in 1.5 mi Variable 3.5 mph - N/A   Smoke
1:56 PM 84.2 °F 28.4 °F 13% 29.82 in 1.0 mi Calm Calm - N/A   Smoke
2:56 PM 86.0 °F 28.4 °F 12% 29.80 in 1.5 mi NW 8.1 mph - N/A   Smoke
3:56 PM 87.8 °F 26.6 °F 11% 29.77 in 1.8 mi WNW 10.4 mph - N/A   Smoke
4:56 PM 87.8 °F 24.8 °F 10% 29.76 in 1.8 mi NW 6.9 mph - N/A   Smoke
5:56 PM 87.8 °F 23.0 °F 9% 29.76 in 1.8 mi NW 9.2 mph - N/A   Smoke
6:03 PM 87.8 °F 24.8 °F 10% 29.83 in 2.5 mi NW 6.9 mph - N/A   Haze
6:31 PM 84.2 °F 28.4 °F 13% 29.83 in 3.0 mi West 13.8 mph - N/A   Haze
6:56 PM 81.0 °F 32.0 °F 17% 29.78 in 2.5 mi West 15.0 mph - N/A   Haze
7:56 PM 77.0 °F 33.1 °F 20% 29.80 in 4.0 mi West 13.8 mph - N/A   Haze
8:56 PM 73.9 °F 33.1 °F 22% 29.82 in 4.0 mi WNW 9.2 mph - N/A   Haze
9:56 PM 69.1 °F 32.0 °F 25% 29.85 in 7.0 mi Calm Calm - N/A   Overcast
10:56 PM 64.0 °F 32.0 °F 30% 29.87 in 5.0 mi NE 4.6 mph - N/A   Haze
11:56 PM 63.0 °F 30.0 °F 29% 29.88 in 6.0 mi Calm Calm - N/A   Haze